Showing default

CUBEL, 47448

Orbit data source: Space-Track

CUBEL, 47448 is a payload satellite owned by DLR (DE) in SSO that was launched on Sun, 24 Jan 2021 UTC via an FALCON 9 launch vehicle from the Air Force Eastern Test Range (AFETR). Payload-class satellites include a variety of spacecraft equipped with specific instruments for various scientific and technological missions. These include communications satellites like Starlink; space stations such as the ISS; scientific satellites like the Hubble; Earth observation satellites from companies like Planet Labs, Umbra, and HawkEye 360; GPS; miniature CubeSats for education and research; and military/defense satellites.

Loading next visibility...
Identifier
47448, 2021-006AM
Orbit
SSO
Country
Flag of DEDE / GER
Related business
Manufacturer
DLR2/GOMSP
Mission
Operational Civil Technology
Bus & Motor
CUBESAT 3U, Unknown motor
Mass
4 kg wet, 4 kg dry
Launch date (UTC)
2021-01-24 (6 years ago)
Launch vehicle
FALCON 9
Launch site
Air Force Eastern Test Range (AFETR)
Object type
Payload
Rocket body
Debris
Shape & HBR
Box, 0.2 m
Radar Cross Section
0.035 m², Medium (>0.1 m² and < 1m²)

Expand to show TLE details & history
Last TLE update: 10 hours ago

TLE from 10 hours ago
0 CUBEL
1 47448U 21006AM  26255.08772501  .00016065  00000-0  35477-3 0  9993
2 47448  97.2239 304.9690 0005477 200.3496 159.7535 15.43928855313157
Epoch: 2026-09-12T02:06Z
TLE epoch observation values (Epoch: 2026-09-12T02:06:19.440Z)
Latitude
-0.00006°
Longitude
-77.71375°
Altitude
441.157 km
Speed
7.645 km/s
True Right ascension
20h 19m 52s
True Declination
0° 00' 00"
Sunlit
Object was in full shadow at epoch
Visualization orbit readout
Latitude
Unknown
Longitude
Unknown
Altitude
Unknown
Speed
Unknown
Apparent Right ascension
Unknown
Apparent Declination
Unknown
Sunlit
N/A
Visualization observer readout
Local Sidereal Time
04:22:28
Azimuth
Unknown
Elevation
Unknown
Doppler factor
Unknown
Orbital elements
Apogee altitude
435.183 km
Perigee altitude
427.724 km
Semi-major axis
6,809.59 km
Eccentricity
0.00055
Inclination
97.2239°
RAAN
304.969°
Arg. of periapsis
200.3496°
True anomaly
159.77521°
Mean anomaly
159.7535°
Eccentric anomaly
159.76435°
Mean motion
3.86244 °/min
Orbital period
93.21 mins
BSTAR
0.00035477
Loading maneuver chart data...
Computing Atmospheric mass density...
Loading historical data...
Loading historical data...
Loading historical data...
Loading historical data...
Loading historical data...
Loading historical data...
Loading historical data...

Documentation

Showing up to 5 results
|